Aalborg, Denmark

2:05 AM CEST on July 23, 2017 (GMT +0200)
Aalborg

Weather History for EKYT - September, 2013

Change the Weather History Date:

Monday, September 2, 2013

  Actual Average Record
Temperature  
Mean Temperature 60 °F -  
Max Temperature 66 °F 60 °F 72 °F (2014)
Min Temperature 55 °F 48 °F 42 °F (2003)
Degree Days  
Heating Degree Days 4    
Growing Degree Days 10 (Base 50)    
Moisture  
Dew Point 57 °F    
Average Humidity 86    
Maximum Humidity 94    
Minimum Humidity 65    
Precipitation  
Precipitation 0.12 in - - ()
Sea Level Pressure  
Sea Level Pressure 29.79 in    
Wind  
Wind Speed 15 mph ()    
Max Wind Speed 21 mph    
Max Gust Speed 31 mph    
Visibility 6.1 miles    
Events Rain    
Averages and records for this station are not official NWS values.
T = Trace of Precipitation, MM = Missing Value Source: Averaged Metar Reports

Daily Weather History Graph

Daily Weather History Graph

Search for Another Location

Airport or City:

Trip Planner

Search our weather history database for the weather conditions in past years. The results will help you decide how hot, cold, wet, or windy it might be!

Date:

Astronomy

Sep. 02, 2013 Rise Set
Actual Time 6:24 AM CEST 8:14 PM CEST
Civil Twilight 5:43 AM CEST 8:54 PM CEST
Nautical Twilight 4:52 AM CEST 9:45 PM CEST
Astronomical Twilight 3:51 AM CEST 10:45 PM CEST
Moon 3:02 AM CEST (9/2) 6:34 PM CEST (9/2)
Length of Visible Light 15h 10m
Length of Day
13h 49m
Waning Crescent, 9% of the Moon is Illuminated
Sep 2
Waning Crescent
Sep 5
New
Sep 12
First Quarter
Sep 19
Full
Sep 27
Last Quarter

Hourly Weather History & Observations

Time (CEST) Temp. Dew Point Humidity Pressure Visibility Wind Dir Wind Speed Gust Speed Precip Events Conditions
12:20 AM 55.4 °F 51.8 °F 88% 29.83 in 6.2 mi West 18.4 mph - N/A   Mostly Cloudy
12:50 AM 55.4 °F 51.8 °F 88% 29.80 in 6.2 mi WSW 17.3 mph - N/A   Mostly Cloudy
1:20 AM 55.4 °F 53.6 °F 94% 29.80 in 5.0 mi West 12.7 mph - N/A Rain Light Rain Showers
1:50 AM 57.2 °F 51.8 °F 82% 29.80 in 6.2 mi WSW 18.4 mph - N/A   Mostly Cloudy
2:00 AM 56 °F 53 °F 85% 29.79 in 6 mi West 16.1 mph - -   Partly Cloudy
2:20 AM 57.2 °F 53.6 °F 88% 29.77 in 6.2 mi West 16.1 mph - N/A   Mostly Cloudy
2:50 AM 57.2 °F 53.6 °F 88% 29.77 in 3.7 mi West 17.3 mph - N/A Rain Light Rain Showers
3:20 AM 57.2 °F 53.6 °F 88% 29.77 in 3.1 mi West 16.1 mph - N/A Rain Light Rain Showers
3:50 AM 57.2 °F 55.4 °F 94% 29.74 in 3.1 mi West 13.8 mph - N/A Rain Light Rain Showers
4:20 AM 57.2 °F 55.4 °F 94% 29.74 in 3.1 mi West 16.1 mph - N/A Rain Light Rain Showers
4:50 AM 57.2 °F 55.4 °F 94% 29.74 in 3.1 mi West 17.3 mph - N/A Rain Light Rain Showers
5:20 AM 57.2 °F 55.4 °F 94% 29.71 in 3.1 mi West 18.4 mph - N/A Rain Light Rain Showers
5:50 AM 57.2 °F 55.4 °F 94% 29.71 in 3.1 mi West 17.3 mph - N/A Rain Light Rain Showers
6:20 AM 57.2 °F 55.4 °F 94% 29.68 in 5.0 mi West 17.3 mph - N/A Rain Light Rain
6:50 AM 57.2 °F 55.4 °F 94% 29.68 in 6.2 mi West 16.1 mph - N/A Rain Light Rain
7:20 AM 59.0 °F 57.2 °F 94% 29.68 in 6.2 mi West 11.5 mph - N/A Rain Rain
7:50 AM 59.0 °F 57.2 °F 94% 29.68 in 5.0 mi West 16.1 mph - N/A Rain Light Rain
8:00 AM 59 °F 58 °F 93% 29.70 in 4 mi West 17.3 mph - - Rain Light Rain
8:20 AM 59.0 °F 57.2 °F 94% 29.68 in 4.3 mi WNW 18.4 mph - N/A Rain Light Rain
8:50 AM 60.8 °F 57.2 °F 88% 29.68 in 6.2 mi WNW 19.6 mph 31.1 mph N/A   Mostly Cloudy
9:20 AM 62.6 °F 57.2 °F 82% 29.68 in 6.2 mi WNW 19.6 mph - N/A   Mostly Cloudy
9:50 AM 62.6 °F 57.2 °F 82% 29.71 in 6.2 mi WNW 20.7 mph - N/A   Mostly Cloudy
10:20 AM 62.6 °F 57.2 °F 82% 29.71 in 6.2 mi WNW 18.4 mph - N/A   Mostly Cloudy
10:50 AM 62.6 °F 57.2 °F 82% 29.71 in 6.2 mi WNW 19.6 mph - N/A   Mostly Cloudy
11:00 AM 64 °F 57 °F 71% 29.73 in 9 mi WNW 17.3 mph - -   Partly Cloudy
11:20 AM 64.4 °F 57.2 °F 77% 29.74 in 6.2 mi WNW 20.7 mph - N/A   Scattered Clouds
11:50 AM 64.4 °F 57.2 °F 77% 29.74 in 6.2 mi NW 17.3 mph - N/A   Scattered Clouds
12:20 PM 66.2 °F 55.4 °F 68% 29.74 in 6.2 mi WNW 16.1 mph - N/A   Scattered Clouds
12:50 PM 66.2 °F 57.2 °F 73% 29.74 in 6.2 mi WNW 18.4 mph - N/A   Scattered Clouds
1:20 PM 66.2 °F 57.2 °F 73% 29.77 in 6.2 mi WNW 18.4 mph - N/A   Scattered Clouds
1:50 PM 66.2 °F 55.4 °F 68% 29.77 in 6.2 mi WNW 16.1 mph - N/A   Mostly Cloudy
2:00 PM 66 °F 57 °F 65% 29.78 in 12 mi WNW 15.0 mph - -   Partly Cloudy
2:20 PM 66.2 °F 57.2 °F 73% 29.77 in 6.2 mi WNW 19.6 mph - N/A   Mostly Cloudy
2:50 PM 64.4 °F 57.2 °F 77% 29.77 in 6.2 mi WNW 17.3 mph - N/A   Mostly Cloudy
3:20 PM 66.2 °F 57.2 °F 73% 29.80 in 6.2 mi WNW 19.6 mph - N/A   Scattered Clouds
3:50 PM 64.4 °F 57.2 °F 77% 29.80 in 6.2 mi WNW 17.3 mph - N/A   Scattered Clouds
4:20 PM 64.4 °F 57.2 °F 77% 29.80 in 6.2 mi WNW 16.1 mph - N/A   Scattered Clouds
4:50 PM 64.4 °F 57.2 °F 77% 29.80 in 6.2 mi WNW 18.4 mph - N/A   Mostly Cloudy
5:00 PM 63 °F 57 °F 75% 29.83 in 16 mi WNW 17.3 mph - -   Overcast
5:20 PM 62.6 °F 57.2 °F 82% 29.80 in 6.2 mi WNW 18.4 mph - N/A Rain Light Rain
5:50 PM 62.6 °F 57.2 °F 82% 29.83 in 6.2 mi WNW 16.1 mph - N/A   Mostly Cloudy
6:20 PM 62.6 °F 57.2 °F 82% 29.83 in 6.2 mi WNW 15.0 mph - N/A   Mostly Cloudy
6:50 PM 62.6 °F 59.0 °F 88% 29.83 in 6.2 mi WNW 15.0 mph - N/A Rain Light Rain
7:20 PM 60.8 °F 59.0 °F 94% 29.86 in 6.2 mi WNW 11.5 mph - N/A Rain Light Rain
7:50 PM 60.8 °F 59.0 °F 94% 29.86 in 6.2 mi WNW 12.7 mph - N/A Rain Light Rain
8:00 PM 61 °F 59 °F 90% 29.88 in 7 mi WNW 11.5 mph - - Rain Light Rain
8:20 PM 60.8 °F 59.0 °F 94% 29.89 in 6.2 mi WNW 13.8 mph - N/A Rain Light Rain
8:50 PM 60.8 °F 59.0 °F 94% 29.89 in 6.2 mi WNW 11.5 mph - N/A Rain Light Rain
9:20 PM 60.8 °F 59.0 °F 94% 29.89 in 6.2 mi WNW 12.7 mph - N/A   Mostly Cloudy
9:50 PM 60.8 °F 59.0 °F 94% 29.92 in 6.2 mi WNW 12.7 mph - N/A   Mostly Cloudy
10:20 PM 60.8 °F 59.0 °F 94% 29.92 in 6.2 mi WNW 10.4 mph - N/A   Mostly Cloudy
10:50 PM 60.8 °F 59.0 °F 94% 29.92 in 6.2 mi WNW 9.2 mph - N/A   Mostly Cloudy
11:00 PM 61 °F 59 °F 90% 29.95 in 12 mi WNW 9.2 mph - -   Partly Cloudy
11:20 PM 60.8 °F 59.0 °F 94% 29.95 in 6.2 mi WNW 10.4 mph - N/A   Mostly Cloudy
11:50 PM 60.8 °F 59.0 °F 94% 29.95 in 6.2 mi WNW 10.4 mph - N/A   Mostly Cloudy